Location: Krakow
(50.0830°N, 19.9170°E)
Time: 12:20:24
(UTC+02:00)

Tiros 1 - Pass Details

Date: 12 February 2023
Orbit: 627 x 662 km, 48.4° (Epoch: 26 March)

Event Time Altitude Azimuth Distance (km) Brightness Sun altitude
Rises 21:19:39 0° 236° (SW) 2,904 - -41.8°
Reaches altitude 10° 21:22:02 10° 230° (SW) 1,998 - -42.1°
Maximum altitude 21:26:24 45° 158° (SSE) 854 - -42.7°
Drops below altitude 10° 21:30:48 10° 86° (E) 2,006 - -43.2°
Sets 21:33:11 0° 80° (E) 2,918 - -43.5°
